Regional Weather Roundup
Issued by NWS Bismarck, ND

Home | Current Version | Previous Version | Text Only | Print | Product List | Glossary On
Versions: 1 2 3 4 5 6 7 8 9 10 11 12 13 14 15 16 17 18 19 20 21 22 23 24 25 26 27 28 29 30 31 32 33 34 35 36 37 38 39 40 41 42 43 44 45 46 47 48 49 50
000
ASUS43 KBIS 221702
RWRBIS

NWR BROADCAST TEXT
NATIONAL WEATHER SERVICE BISMARCK ND
1200 PM CDT FRI SEP 22 2017

NOTE: "FAIR" INDICATES FEW OR NO CLOUDS BELOW 12,000 FEET WITH NO
SIGNIFICANT WEATHER AND/OR OBSTRUCTIONS TO VISIBILITY.


CITY           SKY/WX    TMP DP  RH WIND       PRES   REMARKS
WILLISTON      CLOUDY    48  38  68 NE14      30.00R
MINOT          CLOUDY    49  42  77 NW13      29.92R
MINOT AFB      LGT RAIN  47  41  79 N13       29.91R
BISMARCK       CLOUDY    56  45  66 N8G20     29.80R
DICKINSON      CLOUDY    47  39  74 N21G26    29.88F
GARRISON         N/A     47  42  83 N18G26    29.89R
HETTINGER ARPT NOT AVBL
JAMESTOWN      LGT RAIN  60  54  80 NE12      29.73F
CARRINGTON     CLOUDY    57  46  67 NE12G20   29.78F
HAZEN          CLOUDY    52  43  71 N15G24    29.89F
LINTON         CLOUDY    59  50  72 NE18G24   29.72F
RUGBY          CLOUDY    52  43  71 N14G25    29.84F
STANLEY        TSTM      43  43 100 N10       30.00R
TIOGA          CLOUDY    46  43  87 N13       30.00R
WATFORD CITY   RAIN      46  41  81 N13G20    29.98S
$$

CITY           SKY/WX    TMP DP  RH WIND       PRES   REMARKS
GRAND FORKS    CLOUDY    65  55  70 N21       29.76F
GRAND FORKS AF CLOUDY    61  52  74 NE14      29.77F
DEVILS LAKE    CLOUDY    60  43  53 NE20G29   29.78F
FARGO          CLOUDY    76  66  71 N8        29.70F
CANDO          CLOUDY    57  43  58 NE14G22   29.86S
CAVALIER       PTSUNNY   61  48  63 N14G21    29.82F
GRAFTON        PTSUNNY   63  54  72 N16G22    29.82F
GWINNER        CLOUDY    68  66  94 NE8       29.69F
LANGDON        CLOUDY    59  43  55 NE17G28   29.84F
ROLLA          CLOUDY    52  41  66 N21       29.88F
WALHALLA       FAIR     N/A N/A N/A N14       29.84F
$$

CITY           SKY/WX    TMP DP  RH WIND       PRES   REMARKS
ABERDEEN       PTSUNNY   85  70  60 S16G24    29.63S
MOBRIDGE       CLOUDY    64  59  83 VRB7      29.65R
BUFFALO          N/A     52  36  54 N24G31    29.80F
RAPID CITY     CLOUDY    55  39  54 NW30G38   29.84R
GLASGOW        LGT RAIN  41  40  96 NW9       30.06F
SIDNEY         CLOUDY    47  38  71 N15       30.01R
WOLF POINT     CLOUDY    46  39  76 NW13      30.04F
GLENDIVE       CLOUDY    47  36  65 N15       30.00R
MILES CITY     CLOUDY    48  34  58 N14       30.00R
BAKER          CLOUDY    48  34  58 N18       29.94F
$$

CITY           SKY/WX    TMP DP  RH WIND       PRES   REMARKS
BILLINGS       CLOUDY    40  39  97 NE18      29.99F
GREAT FALLS    LGT SNOW  36  34  92 NE10      30.07S FOG
$$




USA.gov is the U.S. government's official web portal to all federal, state and local government web resources and services.